Regional Weather Roundup
Issued by NWS

Home | Current Version | Previous Version | Text Only | Print | Product List | Glossary Off
Versions: 1 2 3 4 5 6 7 8 9 10 11 12 13 14 15 16 17 18 19 20 21 22 23 24 25 26 27 28 29 30 31 32 33 34 35 36 37 38 39 40 41 42 43 44 45 46 47 48 49 50

000
ASUS43 KMPX 041510
RWRMN
WEATHER ROUNDUP FOR MINNESOTA
NATIONAL WEATHER SERVICE TWIN CITIES/CHANHASSEN MN
1000 AM CDT TUE AUG 04 2015


NOTE: "FAIR" INDICATES FEW OR NO CLOUDS BELOW 12,000 FEET WITH NO
SIGNIFICANT WEATHER AND/OR OBSTRUCTIONS TO VISIBILITY. N/A MEANS
CURRENT SKY AND/OR WEATHER CONDITIONS ARE NOT AVAILABLE.

MNZ060>063-068>070-041600-
   Twin Cities Metro

CITY           SKY/WX    TMP DP  RH WIND       PRES   REMARKS
TWIN CITIES    MOSUNNY   73  54  51 W8        30.01F
ST PAUL        SUNNY     73  56  54 W8        30.01F
CRYSTAL        SUNNY     74  53  48 W9        30.00F
BLAINE         SUNNY     73  54  49 W6          N/A
LAKEVILLE      SUNNY     70  55  60 W3        30.02F
EDEN PRAIRIE   SUNNY     71  59  65 VRB7      30.01F
SOUTH ST PAUL  SUNNY     72  55  53 W6        30.01F
LAKE ELMO      FAIR      70  55  60 W5        30.02F
$$
MNZ001>005-007-008-013>017-022>024-027-028-041600-
   Northwest Minnesota

CITY           SKY/WX    TMP DP  RH WIND       PRES   REMARKS
BEMIDJI        SUNNY     66  53  63 N6        30.01F
HALLOCK        SUNNY     64  54  68 NE8       30.03S
ROSEAU         PTSUNNY   61  54  77 N7        30.03R
WARROAD        PTSUNNY   61  54  77 N7        30.03R
THIEF RVR FALL SUNNY     64  54  68 NW5       30.03S
CROOKSTON      SUNNY     66  54  63 N6        30.03S
FOSSTON        SUNNY     66  54  63 N6        30.03S
DETROIT LAKES  SUNNY     68  52  56 W3        30.04S
MOORHEAD       SUNNY     64  55  72 CALM      30.03S
PARK RAPIDS    SUNNY     68  51  54 CALM      30.02R
MAHNOMEN       FAIR      64  55  72 CALM      30.03R
$$
MNZ006-009>011-018-025>026-041600-
   North Central Minnesota

CITY           SKY/WX    TMP DP  RH WIND       PRES   REMARKS
BAUDETTE       PTSUNNY   61  51  70 N5        30.01R
FLAG ISLAND    MOSUNNY   57  48  72 N8        30.01R
INTL FALLS     CLOUDY    58  50  75 N9        30.01R
WASKISH        MOSUNNY   63  57  82 W3        30.01S
BIG FORK       MOSUNNY   64  54  68 N6        30.00S
LONGVILLE      SUNNY     66  55  68 W7        30.00S
GRAND RAPIDS   SUNNY     64  52  63 NW9       30.00S
CRANE LAKE     CLOUDY    55  52  88 N5        30.00R
ORR            PTSUNNY   61  52  72 CALM      29.97R
COOK           CLOUDY    61  54  77 NW5       29.99R
WALKER         FAIR      65  53  65 NW6       30.01S
$$
MNZ012-019>021-037-041600-
   Northeast Minnesota

CITY           SKY/WX    TMP DP  RH WIND       PRES   REMARKS
DULUTH         MOSUNNY   67  51  56 NW10      29.98R
ELY            CLOUDY    59  52  77 NW5       29.98R
HIBBING        CLOUDY    65  52  62 NW12      29.99R
EVELETH        PTSUNNY   63  50  63 N5        29.99S
DULUTH HARBOR  SUNNY     68  54  60 W7        29.97S
TWO HARBORS    SUNNY     70  57  64 CALM      29.95R
SILVER BAY     CLOUDY    66  54  63 NW6       29.95R
GRAND MARAIS     N/A     55  49  80 W5        29.93R
G MARAIS ARPRT CLOUDY    57  48  72 NW8       29.95R
$$
MNZ029>031-032-039>041-046>048-054>057-064-041600-
   West Central Minnesota

CITY           SKY/WX    TMP DP  RH WIND       PRES   REMARKS
FERGUS FALLS   SUNNY     70  54  56 NW9       30.03R
WHEATON        SUNNY     70  55  60 S3        30.04F
MORRIS         SUNNY     72  57  60 W8        30.03S
ALEXANDRIA     SUNNY     72  52  49 W12       30.05S
ELBOW LAKE     FAIR      69  54  57 W6        30.04R
WADENA         SUNNY     70  52  52 W8        30.02S
GLENWOOD       SUNNY     70  54  56 W13G18    30.04S
APPLETON       MOSUNNY   72  55  56 W3        30.02F
BENSON         MOSUNNY   72  55  56 W5        30.04R
ORTONVILLE     FAIR      72  54  53 CALM      30.02F
MADISON        PTSUNNY   70  57  64 SW3       30.02F
WILLMAR        FAIR      70  55  60 SW8       30.05S
$$
MNZ033>034-036-042>043-049>051-058-059-041600-
   Central Minnesota

CITY           SKY/WX    TMP DP  RH WIND       PRES   REMARKS
ST CLOUD       SUNNY     72  52  49 W8        30.01F
SAUK CENTRE    FAIR      70  55  60 W10       30.04R
PAYNESVILLE    SUNNY     68  52  55 SW14      30.04S
AITKIN         SUNNY     70  55  60 CALM      29.99S
PINE RIVER     SUNNY     66  54  63 NW3       30.04S
BRAINERD       SUNNY     68  51  54 W8        30.02S
STAPLES        SUNNY     70  50  49 W9        30.01F
LONG PRAIRIE   FAIR      70  52  52 W9        30.03S
LITCHFIELD     MOSUNNY   72  57  60 W8        30.04S
BUFFALO        SUNNY     70  54  57 SW3       30.03F
$$
MNZ037-044-045-052-053-041600-
   East Central Minnesota

CITY           SKY/WX    TMP DP  RH WIND       PRES   REMARKS
PRINCETON      SUNNY     72  55  56 W6        30.01F
MORA           SUNNY     68  54  60 W7        30.02F
CAMBRIDGE      SUNNY     73  55  53 W7        29.99F
RUSH CITY      SUNNY     68  56  65 CALM      30.01F
MOOSE LAKE     SUNNY     66  54  63 CALM      29.98S
HINCKLEY       FAIR      68  55  64 W5        30.01S
CLOQUET        SUNNY     66  50  55 NW10      29.99S
MCGREGOR       SUNNY     66  54  63 NW3       30.01S
$$
MNZ071>073-080-081-089-090-097-098-041600-
   Southwest Minnesota

CITY           SKY/WX    TMP DP  RH WIND       PRES   REMARKS
MONTEVIDEO     PTSUNNY   73  61  64 W6        30.05S
GRANITE FALLS  PTSUNNY   70  57  64 CALM      30.05S
CANBY          PTSUNNY   73  55  53 S6        30.04F
MARSHALL       PTSUNNY   72  54  53 S9        30.05F
REDWOOD FALLS  PTSUNNY   72  54  53 SW7       30.04R
OLIVIA         PTSUNNY   68  54  60 SW6       30.04R
PIPESTONE      CLOUDY    68  54  60 SE8       30.05F
WINDOM         CLOUDY    70  55  60 CALM      30.06R
WORTHINGTON    CLOUDY    68  54  60 SE7       30.06F
JACKSON        CLOUDY    70  55  60 CALM      30.06F
TRACY          CLOUDY    70  55  60 S7        30.05S
SLAYTON        CLOUDY    67  58  71 CALM      30.06F
$$
MNZ065>067-074>077-082>085-091>093-041600-
   South Central Minnesota

CITY           SKY/WX    TMP DP  RH WIND       PRES   REMARKS
MANKATO        MOSUNNY   68  55  64 SW6       30.04S
NEW ULM        PTSUNNY   70  57  64 CALM      30.04S
ST JAMES       PTSUNNY   70  61  73 S3        30.06R
FAIRMONT       CLOUDY    68  54  60 CALM      30.05S
GLENCOE        MOSUNNY   69  58  67 SW6       30.03S
FARIBAULT      MOSUNNY   70  59  68 SW6       30.04S
OWATONNA       MOSUNNY   68  57  68 W6        30.04S
WASECA         MOSUNNY   68  57  68 W5        30.06S
ALBERT LEA     PTSUNNY   72  54  53 W3        30.05R
$$
MNZ078>079-086>088-094>096-041600-
   Southeast Minnesota

CITY           SKY/WX    TMP DP  RH WIND       PRES   REMARKS
ROCHESTER      MOSUNNY   69  55  60 SW7       30.05S
RED WING       SUNNY     73  55  53 W5        30.00F
STANTON        SUNNY     71  58  63 CALM      30.01F
DODGE CENTER   MOSUNNY   68  55  64 SW7       30.04S
WINONA         SUNNY     70  55  60 CALM      30.01F
AUSTIN         PTSUNNY   70  57  64 S5        30.04S
PRESTON        MOSUNNY   69  51  52 CALM      30.04S
$$
ABBREVIATIONS USED IN REMARKS
   TC - TEMPERATURES IN CELSIUS
  WCI - WIND CHILL INDEX
   HX - HEAT INDEX
  VSB - VISIBILITY
$$



USA.gov is the U.S. government's official web portal to all federal, state and local government web resources and services.